BAW15 EDDF-EGLL

Flight info

Callsign BAW15
Flight time 1h 14m
Altitude 36000
Route OBOKA3W/25C OBOKA Z29 TORNU DCT ABNED L980 LOGAN
Aircraft A321/M-SDE3FGHIRWY/LB1

Departure

Time 2026-05-06 13:26
Airport Frankfurt Main Airport (EDDF)

Arrival

Time 2026-05-06 14:40
Airport London Heathrow Airport (EGLL)
Time Latitude Longitude Altitude Speed Heading
2026-05-06 12:55 50.04904 8.58794 362 ft 0 kts 160°
2026-05-06 13:15 50.04910 8.58790 364 ft 2 kts 160°
2026-05-06 13:15 50.04929 8.58779 364 ft 3 kts 160°
2026-05-06 13:15 50.04947 8.58769 363 ft 3 kts 179°
2026-05-06 13:16 50.04957 8.58771 361 ft 2 kts 246°
2026-05-06 13:16 50.04961 8.58787 361 ft 3 kts 250°
2026-05-06 13:16 50.04967 8.58813 366 ft 1 kts 250°
2026-05-06 13:16 50.04968 8.58816 366 ft 0 kts 250°
2026-05-06 13:22 50.04965 8.58805 367 ft 3 kts 250°
2026-05-06 13:22 50.04949 8.58745 361 ft 8 kts 245°
2026-05-06 13:22 50.04912 8.58687 361 ft 8 kts 199°
2026-05-06 13:22 50.04856 8.58702 366 ft 10 kts 160°
2026-05-06 13:23 50.04774 8.58750 372 ft 15 kts 159°
2026-05-06 13:23 50.04690 8.58766 371 ft 5 kts 187°
2026-05-06 13:23 50.04689 8.58766 370 ft 0 kts 187°
2026-05-06 13:23 50.04646 8.58757 370 ft 13 kts 187°
2026-05-06 13:24 50.04555 8.58679 371 ft 18 kts 219°
2026-05-06 13:24 50.04477 8.58556 370 ft 0 kts 248°
2026-05-06 13:25 50.04477 8.58553 370 ft 4 kts 249°
2026-05-06 13:25 50.04378 8.58142 369 ft 77 kts 250°
2026-05-06 13:25 50.04117 8.57047 368 ft 136 kts 249°
2026-05-06 13:26 50.03739 8.55447 396 ft 178 kts 250°
2026-05-06 13:26 50.03326 8.53608 1019 ft 182 kts 248°
2026-05-06 13:26 50.02866 8.51684 1602 ft 201 kts 248°
2026-05-06 13:26 50.02205 8.49796 2355 ft 199 kts 229°
2026-05-06 13:27 50.01126 8.48475 3058 ft 199 kts 206°
2026-05-06 13:27 49.99786 8.47910 3711 ft 202 kts 190°
2026-05-06 13:27 49.98386 8.47606 4370 ft 204 kts 190°
2026-05-06 13:27 49.96972 8.47296 5017 ft 206 kts 190°
2026-05-06 13:28 49.95561 8.46847 5599 ft 213 kts 198°
2026-05-06 13:28 49.94063 8.46152 6002 ft 234 kts 198°
2026-05-06 13:28 49.92529 8.45303 6637 ft 241 kts 209°
2026-05-06 13:28 49.91170 8.43782 7294 ft 242 kts 226°
2026-05-06 13:29 49.90170 8.41675 7974 ft 244 kts 239°
2026-05-06 13:29 49.89304 8.39388 8625 ft 248 kts 241°
2026-05-06 13:29 49.88718 8.36869 9288 ft 252 kts 258°
2026-05-06 13:29 49.88633 8.34064 9586 ft 271 kts 274°
2026-05-06 13:30 49.88807 8.31100 9995 ft 282 kts 273°
2026-05-06 13:30 49.89074 8.27971 10139 ft 305 kts 283°
2026-05-06 13:30 49.89916 8.24821 10260 ft 328 kts 300°
2026-05-06 13:30 49.91262 8.21941 10587 ft 340 kts 304°
2026-05-06 13:31 49.92685 8.18983 11146 ft 344 kts 303°
2026-05-06 13:31 49.94178 8.16052 11717 ft 349 kts 310°
2026-05-06 13:31 49.95976 8.13481 12318 ft 354 kts 317°
2026-05-06 13:31 49.97847 8.10981 12910 ft 356 kts 317°
2026-05-06 13:32 49.99735 8.08460 13521 ft 359 kts 317°
2026-05-06 13:32 50.01640 8.05920 14058 ft 362 kts 317°
2026-05-06 13:32 50.03559 8.03360 14568 ft 366 kts 317°
2026-05-06 13:32 50.05498 8.00769 15112 ft 369 kts 317°
2026-05-06 13:33 50.07457 7.98148 15597 ft 373 kts 316°
2026-05-06 13:33 50.09435 7.95498 16078 ft 376 kts 316°
2026-05-06 13:33 50.11397 7.92862 16565 ft 380 kts 317°
2026-05-06 13:33 50.13403 7.90159 17031 ft 383 kts 316°
2026-05-06 13:34 50.15427 7.87429 17511 ft 386 kts 317°
2026-05-06 13:34 50.17463 7.84678 18035 ft 388 kts 316°
2026-05-06 13:34 50.19508 7.81909 18469 ft 390 kts 316°
2026-05-06 13:34 50.21560 7.79127 18947 ft 391 kts 316°
2026-05-06 13:35 50.23611 7.76349 19417 ft 392 kts 316°
2026-05-06 13:35 50.25821 7.73803 19845 ft 397 kts 325°
2026-05-06 13:35 50.28301 7.71858 20266 ft 402 kts 333°
2026-05-06 13:35 50.30883 7.70108 20708 ft 404 kts 333°
2026-05-06 13:36 50.33467 7.68352 21133 ft 406 kts 333°
2026-05-06 13:36 50.36022 7.66606 21533 ft 408 kts 333°
2026-05-06 13:36 50.38627 7.64815 21947 ft 410 kts 332°
2026-05-06 13:36 50.41244 7.63009 22346 ft 412 kts 333°
2026-05-06 13:37 50.43879 7.61188 22729 ft 415 kts 333°
2026-05-06 13:37 50.46528 7.59362 23123 ft 417 kts 333°
2026-05-06 13:37 50.49192 7.57525 23492 ft 419 kts 333°
2026-05-06 13:37 50.51869 7.55679 23816 ft 421 kts 333°
2026-05-06 13:38 50.54558 7.53821 24148 ft 423 kts 332°
2026-05-06 13:38 50.57097 7.51663 24458 ft 421 kts 323°
2026-05-06 13:38 50.59552 7.49134 24778 ft 423 kts 323°
2026-05-06 13:38 50.62021 7.46597 25112 ft 425 kts 323°
2026-05-06 13:39 50.64522 7.44036 25413 ft 428 kts 326°
2026-05-06 13:39 50.67029 7.41471 25632 ft 433 kts 326°
2026-05-06 13:39 50.69561 7.38877 25912 ft 435 kts 326°
2026-05-06 13:39 50.72034 7.36111 26229 ft 437 kts 319°
2026-05-06 13:40 50.74210 7.32765 26492 ft 438 kts 310°
2026-05-06 13:40 50.76018 7.28905 26827 ft 438 kts 301°
2026-05-06 13:40 50.77464 7.24681 27108 ft 439 kts 296°
2026-05-06 13:40 50.78863 7.20374 27399 ft 442 kts 296°
2026-05-06 13:41 50.80271 7.16049 27723 ft 443 kts 296°
2026-05-06 13:41 50.81687 7.11711 28012 ft 445 kts 296°
2026-05-06 13:41 50.83106 7.07346 28287 ft 447 kts 296°
2026-05-06 13:41 50.84505 7.03019 28615 ft 448 kts 296°
2026-05-06 13:42 50.85921 6.98627 28932 ft 449 kts 296°
2026-05-06 13:42 50.87342 6.94217 29208 ft 450 kts 296°
2026-05-06 13:42 50.88764 6.89803 29468 ft 452 kts 296°
2026-05-06 13:42 50.90199 6.85349 29745 ft 453 kts 296°
2026-05-06 13:43 50.91630 6.80904 29977 ft 454 kts 296°
2026-05-06 13:43 50.93065 6.76433 30165 ft 456 kts 296°
2026-05-06 13:43 50.94498 6.71945 30401 ft 456 kts 295°
2026-05-06 13:43 50.95925 6.67462 30679 ft 455 kts 296°
2026-05-06 13:44 50.97348 6.62988 30944 ft 454 kts 295°
2026-05-06 13:44 50.98774 6.58505 31207 ft 454 kts 295°
2026-05-06 13:44 51.00195 6.54030 31432 ft 455 kts 295°
2026-05-06 13:44 51.01598 6.49601 31766 ft 455 kts 295°
2026-05-06 13:45 51.03017 6.45111 32089 ft 454 kts 295°
2026-05-06 13:45 51.05836 6.36146 32701 ft 453 kts 295°
2026-05-06 13:45 51.07241 6.31668 32941 ft 452 kts 295°
2026-05-06 13:46 51.08642 6.27207 33182 ft 452 kts 295°
2026-05-06 13:46 51.10043 6.22738 33421 ft 451 kts 295°
2026-05-06 13:46 51.11439 6.18270 33659 ft 451 kts 294°
2026-05-06 13:46 51.12835 6.13808 33891 ft 450 kts 295°
2026-05-06 13:47 51.14083 6.09242 34119 ft 448 kts 287°
2026-05-06 13:47 51.14930 6.04476 34351 ft 447 kts 282°
2026-05-06 13:47 51.15699 5.99689 34588 ft 447 kts 282°
2026-05-06 13:47 51.16459 5.94960 34780 ft 447 kts 282°
2026-05-06 13:48 51.17232 5.90157 34952 ft 446 kts 282°
2026-05-06 13:48 51.18006 5.85378 35128 ft 446 kts 283°
2026-05-06 13:48 51.19033 5.80704 35294 ft 448 kts 291°
2026-05-06 13:48 51.20259 5.76136 35462 ft 448 kts 291°
2026-05-06 13:49 51.21474 5.71564 35637 ft 448 kts 290°
2026-05-06 13:49 51.22680 5.66990 35819 ft 447 kts 290°
2026-05-06 13:49 51.25081 5.57828 35876 ft 447 kts 290°
2026-05-06 13:50 51.27460 5.48731 35880 ft 447 kts 290°
2026-05-06 13:50 51.29846 5.39578 35879 ft 447 kts 290°
2026-05-06 13:51 51.32229 5.30406 35881 ft 447 kts 290°
2026-05-06 13:51 51.34605 5.21225 35900 ft 447 kts 290°
2026-05-06 13:52 51.36974 5.12020 35904 ft 447 kts 290°
2026-05-06 13:52 51.39334 5.02801 35908 ft 448 kts 290°
2026-05-06 13:53 51.41686 4.93576 35913 ft 448 kts 290°
2026-05-06 13:53 51.44040 4.84338 35913 ft 448 kts 290°
2026-05-06 13:54 51.46386 4.75094 35921 ft 448 kts 290°
2026-05-06 13:54 51.48709 4.65892 35922 ft 447 kts 290°
2026-05-06 13:55 51.51036 4.56646 35919 ft 447 kts 290°
2026-05-06 13:55 51.53351 4.47387 35919 ft 446 kts 290°
2026-05-06 13:56 51.55653 4.38141 35916 ft 446 kts 290°
2026-05-06 13:56 51.57949 4.28883 35914 ft 446 kts 290°
2026-05-06 13:57 51.60244 4.19619 35914 ft 446 kts 290°
2026-05-06 13:57 51.62511 4.10401 35914 ft 446 kts 290°
2026-05-06 13:58 51.64788 4.01112 35919 ft 446 kts 290°
2026-05-06 13:58 51.67060 3.91812 35922 ft 446 kts 289°
2026-05-06 13:59 51.69314 3.82517 35935 ft 446 kts 289°
2026-05-06 13:59 51.71570 3.73219 35939 ft 445 kts 289°
2026-05-06 14:00 51.73813 3.63924 35949 ft 444 kts 290°
2026-05-06 14:00 51.76029 3.54698 35953 ft 443 kts 289°
2026-05-06 14:01 51.78242 3.45421 35956 ft 443 kts 289°
2026-05-06 14:01 51.80450 3.36129 35958 ft 442 kts 289°
2026-05-06 14:02 51.81547 3.31489 35778 ft 441 kts 288°
2026-05-06 14:02 51.82639 3.26866 35400 ft 439 kts 289°
2026-05-06 14:02 51.83694 3.22250 35008 ft 436 kts 284°
2026-05-06 14:02 51.84367 3.17488 34623 ft 434 kts 275°
2026-05-06 14:03 51.84558 3.12715 34246 ft 429 kts 267°
2026-05-06 14:03 51.84320 3.07867 33857 ft 426 kts 262°
2026-05-06 14:03 51.84009 3.03175 33412 ft 423 kts 262°
2026-05-06 14:03 51.83702 2.98469 32969 ft 419 kts 263°
2026-05-06 14:04 51.83399 2.93817 32538 ft 415 kts 262°
2026-05-06 14:04 51.83093 2.89180 32116 ft 414 kts 262°
2026-05-06 14:04 51.82785 2.84572 31703 ft 411 kts 263°
2026-05-06 14:04 51.82478 2.80003 31282 ft 407 kts 263°
2026-05-06 14:05 51.82173 2.75470 30870 ft 405 kts 262°
2026-05-06 14:05 51.81869 2.70965 30469 ft 402 kts 263°
2026-05-06 14:05 51.81566 2.66482 30070 ft 399 kts 262°
2026-05-06 14:05 51.81267 2.62094 29627 ft 396 kts 262°
2026-05-06 14:06 51.80964 2.57689 29166 ft 393 kts 262°
2026-05-06 14:06 51.80661 2.53312 28713 ft 391 kts 262°
2026-05-06 14:06 51.80358 2.48959 28279 ft 389 kts 262°
2026-05-06 14:06 51.80059 2.44641 27842 ft 385 kts 262°
2026-05-06 14:07 51.79761 2.40361 27431 ft 382 kts 262°
2026-05-06 14:07 51.79460 2.36119 26993 ft 379 kts 262°
2026-05-06 14:07 51.79158 2.31911 26579 ft 376 kts 262°
2026-05-06 14:07 51.78854 2.27734 26166 ft 373 kts 262°
2026-05-06 14:08 51.78556 2.23640 25757 ft 371 kts 262°
2026-05-06 14:08 51.78266 2.19506 25358 ft 370 kts 263°
2026-05-06 14:08 51.78008 2.15388 24963 ft 368 kts 264°
2026-05-06 14:08 51.77772 2.11290 24577 ft 365 kts 264°
2026-05-06 14:09 51.77545 2.07216 24193 ft 363 kts 264°
2026-05-06 14:09 51.77318 2.03168 23815 ft 361 kts 264°
2026-05-06 14:09 51.77091 1.99144 23423 ft 359 kts 264°
2026-05-06 14:09 51.76859 1.95146 22977 ft 356 kts 264°
2026-05-06 14:10 51.76624 1.91187 22546 ft 354 kts 264°
2026-05-06 14:10 51.76385 1.87249 22110 ft 351 kts 263°
2026-05-06 14:10 51.76142 1.83336 21683 ft 349 kts 263°
2026-05-06 14:10 51.75900 1.79443 21259 ft 348 kts 264°
2026-05-06 14:11 51.75662 1.75624 20849 ft 346 kts 264°
2026-05-06 14:11 51.75423 1.71770 20448 ft 344 kts 264°
2026-05-06 14:11 51.75185 1.67968 20048 ft 343 kts 264°
2026-05-06 14:11 51.74947 1.64153 19650 ft 341 kts 264°
2026-05-06 14:12 51.74711 1.60356 19254 ft 339 kts 264°
2026-05-06 14:12 51.74473 1.56582 18873 ft 337 kts 264°
2026-05-06 14:12 51.74233 1.52830 18600 ft 336 kts 264°
2026-05-06 14:12 51.73992 1.49085 18409 ft 336 kts 264°
2026-05-06 14:13 51.73751 1.45338 18219 ft 335 kts 264°
2026-05-06 14:13 51.73513 1.41657 18002 ft 334 kts 264°
2026-05-06 14:13 51.73270 1.37944 17781 ft 332 kts 264°
2026-05-06 14:13 51.73026 1.34251 17564 ft 331 kts 264°
2026-05-06 14:14 51.72783 1.30563 17351 ft 330 kts 264°
2026-05-06 14:14 51.72533 1.26888 17134 ft 330 kts 264°
2026-05-06 14:14 51.72285 1.23220 16925 ft 328 kts 264°
2026-05-06 14:14 51.72043 1.19566 16714 ft 327 kts 264°
2026-05-06 14:15 51.71803 1.15923 16507 ft 326 kts 264°
2026-05-06 14:15 51.71564 1.12295 16286 ft 325 kts 264°
2026-05-06 14:15 51.71324 1.08728 16096 ft 324 kts 264°
2026-05-06 14:15 51.71078 1.05118 15885 ft 324 kts 264°
2026-05-06 14:16 51.70830 1.01509 15690 ft 323 kts 264°
2026-05-06 14:16 51.70583 0.97914 15477 ft 322 kts 264°
2026-05-06 14:16 51.70338 0.94342 15308 ft 319 kts 264°
2026-05-06 14:16 51.70095 0.90805 15133 ft 318 kts 264°
2026-05-06 14:17 51.69852 0.87270 14957 ft 316 kts 264°
2026-05-06 14:17 51.69608 0.83736 14577 ft 317 kts 264°
2026-05-06 14:17 51.69361 0.80219 14135 ft 314 kts 264°
2026-05-06 14:17 51.69112 0.76733 13691 ft 312 kts 265°
2026-05-06 14:18 51.68867 0.73278 13232 ft 308 kts 265°
2026-05-06 14:18 51.68628 0.69908 12817 ft 306 kts 265°
2026-05-06 14:18 51.68388 0.66495 12391 ft 306 kts 265°
2026-05-06 14:18 51.68147 0.63106 11970 ft 305 kts 264°
2026-05-06 14:19 51.67903 0.59715 11548 ft 304 kts 264°
2026-05-06 14:19 51.67658 0.56342 11129 ft 302 kts 265°
2026-05-06 14:19 51.67413 0.52994 10792 ft 297 kts 266°
2026-05-06 14:19 51.67175 0.49758 10602 ft 287 kts 266°
2026-05-06 14:20 51.66945 0.46610 10333 ft 281 kts 265°
2026-05-06 14:20 51.66720 0.43530 10188 ft 270 kts 265°
2026-05-06 14:20 51.66501 0.40593 10071 ft 259 kts 265°
2026-05-06 14:20 51.66291 0.37765 9975 ft 251 kts 265°
2026-05-06 14:21 51.66085 0.34987 9981 ft 249 kts 266°
2026-05-06 14:21 51.65880 0.32228 9994 ft 249 kts 265°
2026-05-06 14:21 51.65678 0.29490 9995 ft 248 kts 266°
2026-05-06 14:21 51.65474 0.26734 9945 ft 249 kts 266°
2026-05-06 14:22 51.65278 0.23959 9693 ft 248 kts 266°
2026-05-06 14:22 51.65088 0.21201 9425 ft 247 kts 268°
2026-05-06 14:22 51.64894 0.18466 9155 ft 245 kts 264°
2026-05-06 14:22 51.64708 0.15733 8892 ft 245 kts 266°
2026-05-06 14:23 51.64530 0.12995 8630 ft 246 kts 266°
2026-05-06 14:23 51.64359 0.10266 8369 ft 245 kts 266°
2026-05-06 14:23 51.64172 0.07548 8115 ft 244 kts 265°
2026-05-06 14:23 51.63996 0.04829 7999 ft 244 kts 266°
2026-05-06 14:24 51.63808 0.02142 7998 ft 245 kts 266°
2026-05-06 14:24 51.63607 -0.00581 8039 ft 245 kts 264°
2026-05-06 14:24 51.63414 -0.03332 8037 ft 243 kts 266°
2026-05-06 14:24 51.63225 -0.06000 8042 ft 243 kts 266°
2026-05-06 14:25 51.63026 -0.08694 8045 ft 243 kts 266°
2026-05-06 14:25 51.62841 -0.11399 8049 ft 243 kts 266°
2026-05-06 14:25 51.62654 -0.14100 8049 ft 243 kts 266°
2026-05-06 14:25 51.62457 -0.16796 8054 ft 242 kts 266°
2026-05-06 14:26 51.62262 -0.19496 8058 ft 243 kts 268°
2026-05-06 14:26 51.62063 -0.22192 8053 ft 243 kts 266°
2026-05-06 14:26 51.61855 -0.24881 8059 ft 242 kts 266°
2026-05-06 14:26 51.61644 -0.27569 8058 ft 242 kts 265°
2026-05-06 14:27 51.61452 -0.30266 8058 ft 243 kts 266°
2026-05-06 14:27 51.61324 -0.32964 8003 ft 241 kts 274°
2026-05-06 14:27 51.61394 -0.35664 8003 ft 242 kts 276°
2026-05-06 14:27 51.61507 -0.38332 8002 ft 242 kts 276°
2026-05-06 14:28 51.61626 -0.41028 8002 ft 242 kts 276°
2026-05-06 14:28 51.61734 -0.43730 8000 ft 241 kts 278°
2026-05-06 14:28 51.61829 -0.46441 8001 ft 240 kts 276°
2026-05-06 14:28 51.61895 -0.48223 8001 ft 241 kts 277°
2026-05-06 14:29 51.62005 -0.50918 8005 ft 241 kts 276°
2026-05-06 14:29 51.62120 -0.54467 7996 ft 240 kts 276°
2026-05-06 14:29 51.62208 -0.57149 7997 ft 241 kts 275°
2026-05-06 14:29 51.62303 -0.59837 8004 ft 240 kts 276°
2026-05-06 14:30 51.62399 -0.62522 8000 ft 241 kts 275°
2026-05-06 14:30 51.62471 -0.64345 7898 ft 242 kts 276°
2026-05-06 14:30 51.62559 -0.67029 7690 ft 238 kts 276°
2026-05-06 14:30 51.62654 -0.69659 7493 ft 239 kts 276°
2026-05-06 14:31 51.62745 -0.72333 7264 ft 240 kts 272°
2026-05-06 14:31 51.62371 -0.74933 6984 ft 243 kts 242°
2026-05-06 14:31 51.61369 -0.77136 6673 ft 246 kts 232°
2026-05-06 14:31 51.60257 -0.79228 6362 ft 246 kts 232°
2026-05-06 14:32 51.59123 -0.81287 5979 ft 245 kts 231°
2026-05-06 14:32 51.58020 -0.83300 5567 ft 235 kts 230°
2026-05-06 14:32 51.56972 -0.85220 5230 ft 221 kts 231°
2026-05-06 14:32 51.55988 -0.87012 4938 ft 207 kts 231°
2026-05-06 14:33 51.54852 -0.88297 4631 ft 205 kts 198°
2026-05-06 14:33 51.53453 -0.88278 4311 ft 203 kts 161°
2026-05-06 14:33 51.52157 -0.87405 4038 ft 202 kts 152°
2026-05-06 14:33 51.50898 -0.86403 4002 ft 202 kts 151°
2026-05-06 14:34 51.49634 -0.85388 4002 ft 204 kts 151°
2026-05-06 14:34 51.48376 -0.84366 4003 ft 201 kts 149°
2026-05-06 14:34 51.47435 -0.82820 4001 ft 194 kts 111°
2026-05-06 14:34 51.47375 -0.80773 4004 ft 185 kts 71°
2026-05-06 14:35 51.47622 -0.78737 3907 ft 190 kts 84°
2026-05-06 14:35 51.47620 -0.76630 3620 ft 187 kts 86°
2026-05-06 14:35 51.47618 -0.74591 3361 ft 183 kts 84°
2026-05-06 14:35 51.47626 -0.72583 3138 ft 175 kts 85°
2026-05-06 14:36 51.47636 -0.70675 2881 ft 168 kts 85°
2026-05-06 14:36 51.47647 -0.68814 2649 ft 165 kts 85°
2026-05-06 14:36 51.47658 -0.66978 2422 ft 164 kts 84°
2026-05-06 14:36 51.47668 -0.65137 2195 ft 164 kts 84°
2026-05-06 14:37 51.47678 -0.63319 1974 ft 164 kts 85°
2026-05-06 14:37 51.47688 -0.61483 1750 ft 165 kts 85°
2026-05-06 14:37 51.47697 -0.59657 1514 ft 162 kts 83°
2026-05-06 14:37 51.47705 -0.57888 1298 ft 156 kts 84°
2026-05-06 14:38 51.47713 -0.56195 1083 ft 148 kts 85°
2026-05-06 14:38 51.47720 -0.54560 867 ft 145 kts 85°
2026-05-06 14:38 51.47728 -0.52937 690 ft 145 kts 85°
2026-05-06 14:38 51.47729 -0.51336 488 ft 141 kts 85°
2026-05-06 14:39 51.47732 -0.49742 287 ft 142 kts 83°
2026-05-06 14:39 51.47751 -0.48153 100 ft 141 kts 84°
2026-05-06 14:39 51.47754 -0.46742 92 ft 107 kts 90°
2026-05-06 14:39 51.47761 -0.45832 82 ft 63 kts 89°
2026-05-06 14:40 51.47763 -0.45165 90 ft 52 kts 89°
2026-05-06 14:40 51.47702 -0.44856 96 ft 15 kts 166°
2026-05-06 14:40 51.47659 -0.44809 95 ft 0 kts 139°
2026-05-06 14:42 51.47638 -0.44790 93 ft 9 kts 159°
2026-05-06 14:42 51.47590 -0.44682 90 ft 13 kts 134°
2026-05-06 14:42 51.47548 -0.44655 87 ft 0 kts 152°
2026-05-06 14:43 51.47547 -0.44655 87 ft 0 kts 154°
2026-05-06 14:43 51.47543 -0.44665 89 ft 2 kts 236°
2026-05-06 14:43 51.47566 -0.44689 87 ft 9 kts 330°
2026-05-06 14:43 51.47600 -0.44803 89 ft 17 kts 267°
2026-05-06 14:44 51.47599 -0.45007 88 ft 18 kts 272°
2026-05-06 14:44 51.47598 -0.45220 88 ft 20 kts 269°
2026-05-06 14:44 51.47597 -0.45448 86 ft 22 kts 270°
2026-05-06 14:45 51.47593 -0.45950 85 ft 23 kts 269°
2026-05-06 14:45 51.47593 -0.46210 87 ft 23 kts 270°
2026-05-06 14:45 51.47592 -0.46467 89 ft 24 kts 269°
2026-05-06 14:45 51.47590 -0.46747 89 ft 27 kts 268°
2026-05-06 14:46 51.47583 -0.47086 88 ft 32 kts 272°
2026-05-06 14:46 51.47582 -0.47447 89 ft 32 kts 269°
2026-05-06 14:46 51.47582 -0.47807 87 ft 32 kts 270°
2026-05-06 14:46 51.47580 -0.48164 89 ft 32 kts 270°
2026-05-06 14:47 51.47564 -0.48450 90 ft 21 kts 230°
2026-05-06 14:47 51.47421 -0.48477 85 ft 22 kts 180°
2026-05-06 14:47 51.47268 -0.48475 85 ft 23 kts 180°
2026-05-06 14:47 51.47100 -0.48473 85 ft 25 kts 180°
2026-05-06 14:48 51.46928 -0.48474 85 ft 21 kts 180°
2026-05-06 14:48 51.46876 -0.48549 85 ft 8 kts 271°
2026-05-06 14:48 51.46912 -0.48578 85 ft 7 kts 10°
2026-05-06 14:48 51.46930 -0.48575 86 ft 0 kts